PST,Max TemperatureF,Mean TemperatureF,Min TemperatureF,Max Dew PointF,MeanDew PointF,Min DewpointF,Max Humidity, Mean Humidity, Min Humidity, Max Sea Level PressureIn, Mean Sea Level PressureIn, Min Sea Level PressureIn, Max VisibilityMiles, Mean VisibilityMiles, Min VisibilityMiles, Max Wind SpeedMPH, Mean Wind SpeedMPH, Max Gust SpeedMPH,PrecipitationIn, CloudCover, Events, WindDirDegrees
2012-2-1,44,34,24,33,27,21,82,66,49,30.43,30.15,29.86,10,10,10,26,10,32,0.00,3,,265
2012-2-2,49,33,17,25,20,14,91,58,24,30.46,30.37,30.32,10,10,10,12,3,13,0.00,0,,238
2012-2-3,48,30,12,26,20,10,92,63,34,30.38,30.29,30.22,10,10,10,14,4,18,0.00,0,,194
2012-2-4,40,29,17,27,23,16,100,80,59,30.35,30.26,30.17,10,5,0,12,3,13,T,3,Fog,297
2012-2-5,41,28,14,27,22,12,100,80,59,30.37,30.27,30.16,10,5,0,13,3,15,0.00,5,Fog,288
2012-2-6,29,22,14,27,23,10,100,92,84,30.24,30.12,30.03,10,3,0,12,3,14,T,8,Fog,28
2012-2-7,37,31,25,27,25,23,100,82,64,30.12,30.06,29.97,10,9,5,9,3,12,0.01,7,Snow,339
2012-2-8,44,33,21,40,33,22,100,92,83,30.35,30.23,30.06,10,9,5,10,3,13,0.26,7,Rain,93
2012-2-9,47,42,36,43,39,36,100,91,82,30.33,30.23,30.11,10,4,0,10,2,12,0.04,8,Fog-Rain,331
2012-2-10,51,43,34,41,37,34,100,89,77,30.12,30.04,29.97,10,3,0,14,3,17,T,7,Fog-Rain,307
2012-2-11,48,39,29,36,32,23,100,69,38,30.16,30.08,30.02,10,5,0,17,4,22,0.06,6,Fog-Rain,305
2012-2-12,51,37,22,24,18,5,81,50,19,30.09,29.93,29.80,10,10,10,13,5,15,0.00,3,,345
2012-2-13,42,34,25,29,26,22,92,72,52,30.03,29.92,29.80,10,10,4,12,6,14,T,7,Snow,331
2012-2-14,40,30,19,26,22,17,92,66,40,30.11,29.98,29.87,10,10,10,23,6,30,T,4,,281
2012-2-15,45,30,15,19,17,14,92,62,31,30.37,30.28,30.08,10,10,10,9,3,14,0.00,0,,229
2012-2-16,50,36,21,32,24,18,85,61,37,30.35,30.27,30.19,10,10,10,10,3,13,T,4,Rain,95
2012-2-17,56,40,23,39,31,19,92,69,46,30.25,30.11,29.97,10,10,10,26,6,35,T,3,Rain,228
2012-2-18,43,32,21,28,21,15,82,58,34,30.16,30.12,30.06,10,10,10,28,11,35,0.00,1,,265
2012-2-19,43,29,14,27,16,12,88,59,29,30.14,30.04,29.94,10,10,10,9,3,13,0.00,2,,149
2012-2-20,50,38,26,35,30,25,92,67,42,30.09,29.98,29.86,10,10,10,22,4,28,T,7,,86
2012-2-21,59,49,38,40,37,34,85,66,47,30.23,30.17,30.08,10,10,10,30,12,40,T,6,,258
2012-2-22,55,44,32,38,29,16,61,47,33,30.30,30.15,30.07,10,10,10,37,17,51,0.00,1,,280
2012-2-23,49,34,19,23,18,12,84,54,24,30.39,30.34,30.29,10,10,10,13,3,16,0.00,1,,229
2012-2-24,65,43,20,36,25,16,91,55,19,30.29,29.93,29.67,10,10,4,22,8,30,0.00,3,Rain,210
2012-2-25,37,31,25,29,23,16,85,65,44,30.28,29.99,29.78,10,7,1,37,18,48,T,5,Snow,260
2012-2-26,41,32,23,27,19,14,74,54,34,30.24,30.09,29.94,10,9,3,14,6,22,T,5,Snow,303
2012-2-27,29,27,24,27,23,19,92,84,75,30.07,29.99,29.92,10,5,1,17,9,21,0.15,8,Snow,328
2012-2-28,37,24,11,30,22,8,92,76,59,29.99,29.76,29.53,10,8,0,24,10,33,0.04,5,Fog-Snow,175
2012-2-29,39,28,17,27,22,16,84,64,44,29.86,29.76,29.55,10,9,1,24,11,31,T,4,Snow,217